Index of /20260430/WXO-DD/model_rdps/10km/06/070
Name Last modified Size Description
Parent Directory -
20260430T06Z_MSC_RDPS_AbsoluteVorticity_IsbL-0250_RLatLon0.09_PT070H.grib2 2026-04-30 09:01 611K
20260430T06Z_MSC_RDPS_AbsoluteVorticity_IsbL-0500_RLatLon0.09_PT070H.grib2 2026-04-30 09:01 564K
20260430T06Z_MSC_RDPS_AbsoluteVorticity_IsbL-0700_RLatLon0.09_PT070H.grib2 2026-04-30 09:01 620K
20260430T06Z_MSC_RDPS_AbsoluteVorticity_IsbL-0850_RLatLon0.09_PT070H.grib2 2026-04-30 09:01 774K
20260430T06Z_MSC_RDPS_AirTemp_AGL-120m_RLatLon0.09_PT070H.grib2 2026-04-30 09:01 367K
20260430T06Z_MSC_RDPS_AirTemp_AGL-2m_RLatLon0.09_PT070H.grib2 2026-04-30 09:01 621K
20260430T06Z_MSC_RDPS_AirTemp_AGL-40m_RLatLon0.09_PT070H.grib2 2026-04-30 09:01 383K
20260430T06Z_MSC_RDPS_AirTemp_AGL-80m_RLatLon0.09_PT070H.grib2 2026-04-30 09:01 373K
20260430T06Z_MSC_RDPS_AirTemp_IsbL-0001_RLatLon0.09_PT070H.grib2 2026-04-30 09:01 295K
20260430T06Z_MSC_RDPS_AirTemp_IsbL-0005_RLatLon0.09_PT070H.grib2 2026-04-30 09:01 286K
20260430T06Z_MSC_RDPS_AirTemp_IsbL-0010_RLatLon0.09_PT070H.grib2 2026-04-30 09:01 297K
20260430T06Z_MSC_RDPS_AirTemp_IsbL-0020_RLatLon0.09_PT070H.grib2 2026-04-30 09:01 409K
20260430T06Z_MSC_RDPS_AirTemp_IsbL-0030_RLatLon0.09_PT070H.grib2 2026-04-30 09:01 338K
20260430T06Z_MSC_RDPS_AirTemp_IsbL-0050_RLatLon0.09_PT070H.grib2 2026-04-30 09:01 315K
20260430T06Z_MSC_RDPS_AirTemp_IsbL-0100_RLatLon0.09_PT070H.grib2 2026-04-30 09:01 391K
20260430T06Z_MSC_RDPS_AirTemp_IsbL-0150_RLatLon0.09_PT070H.grib2 2026-04-30 09:01 419K
20260430T06Z_MSC_RDPS_AirTemp_IsbL-0175_RLatLon0.09_PT070H.grib2 2026-04-30 09:01 409K
20260430T06Z_MSC_RDPS_AirTemp_IsbL-0200_RLatLon0.09_PT070H.grib2 2026-04-30 09:01 413K
20260430T06Z_MSC_RDPS_AirTemp_IsbL-0225_RLatLon0.09_PT070H.grib2 2026-04-30 09:01 415K
20260430T06Z_MSC_RDPS_AirTemp_IsbL-0250_RLatLon0.09_PT070H.grib2 2026-04-30 09:01 421K
20260430T06Z_MSC_RDPS_AirTemp_IsbL-0275_RLatLon0.09_PT070H.grib2 2026-04-30 09:01 400K
20260430T06Z_MSC_RDPS_AirTemp_IsbL-0300_RLatLon0.09_PT070H.grib2 2026-04-30 09:01 409K
20260430T06Z_MSC_RDPS_AirTemp_IsbL-0350_RLatLon0.09_PT070H.grib2 2026-04-30 09:01 424K
20260430T06Z_MSC_RDPS_AirTemp_IsbL-0400_RLatLon0.09_PT070H.grib2 2026-04-30 09:01 425K
20260430T06Z_MSC_RDPS_AirTemp_IsbL-0450_RLatLon0.09_PT070H.grib2 2026-04-30 09:01 399K
20260430T06Z_MSC_RDPS_AirTemp_IsbL-0500_RLatLon0.09_PT070H.grib2 2026-04-30 09:01 410K
20260430T06Z_MSC_RDPS_AirTemp_IsbL-0550_RLatLon0.09_PT070H.grib2 2026-04-30 09:01 427K
20260430T06Z_MSC_RDPS_AirTemp_IsbL-0600_RLatLon0.09_PT070H.grib2 2026-04-30 09:01 441K
20260430T06Z_MSC_RDPS_AirTemp_IsbL-0650_RLatLon0.09_PT070H.grib2 2026-04-30 09:01 455K
20260430T06Z_MSC_RDPS_AirTemp_IsbL-0700_RLatLon0.09_PT070H.grib2 2026-04-30 09:01 481K
20260430T06Z_MSC_RDPS_AirTemp_IsbL-0750_RLatLon0.09_PT070H.grib2 2026-04-30 09:01 403K
20260430T06Z_MSC_RDPS_AirTemp_IsbL-0800_RLatLon0.09_PT070H.grib2 2026-04-30 09:01 443K
20260430T06Z_MSC_RDPS_AirTemp_IsbL-0850_RLatLon0.09_PT070H.grib2 2026-04-30 09:01 493K
20260430T06Z_MSC_RDPS_AirTemp_IsbL-0875_RLatLon0.09_PT070H.grib2 2026-04-30 09:01 514K
20260430T06Z_MSC_RDPS_AirTemp_IsbL-0900_RLatLon0.09_PT070H.grib2 2026-04-30 09:01 524K
20260430T06Z_MSC_RDPS_AirTemp_IsbL-0925_RLatLon0.09_PT070H.grib2 2026-04-30 09:01 517K
20260430T06Z_MSC_RDPS_AirTemp_IsbL-0950_RLatLon0.09_PT070H.grib2 2026-04-30 09:01 517K
20260430T06Z_MSC_RDPS_AirTemp_IsbL-0970_RLatLon0.09_PT070H.grib2 2026-04-30 09:01 512K
20260430T06Z_MSC_RDPS_AirTemp_IsbL-0985_RLatLon0.09_PT070H.grib2 2026-04-30 09:01 502K
20260430T06Z_MSC_RDPS_AirTemp_IsbL-1000_RLatLon0.09_PT070H.grib2 2026-04-30 09:01 482K
20260430T06Z_MSC_RDPS_AirTemp_IsbL-1015_RLatLon0.09_PT070H.grib2 2026-04-30 09:01 479K
20260430T06Z_MSC_RDPS_Albedo_Sfc_RLatLon0.09_PT070H.grib2 2026-04-30 09:01 159K
20260430T06Z_MSC_RDPS_CAPE_Sfc_RLatLon0.09_PT070H.grib2 2026-04-30 09:01 1.6M
20260430T06Z_MSC_RDPS_CIN_Sfc_RLatLon0.09_PT070H.grib2 2026-04-30 09:01 1.1M
20260430T06Z_MSC_RDPS_CloudWater_EAtm_RLatLon0.09_PT070H.grib2 2026-04-30 09:01 221K
20260430T06Z_MSC_RDPS_ConvectivePrecip-Accum_Sfc_RLatLon0.09_PT070H.grib2 2026-04-30 09:01 1.2M
20260430T06Z_MSC_RDPS_DewPointDepression_AGL-2m_RLatLon0.09_PT070H.grib2 2026-04-30 09:01 396K
20260430T06Z_MSC_RDPS_DewPointDepression_IsbL-0001_RLatLon0.09_PT070H.grib2 2026-04-30 09:01 193
20260430T06Z_MSC_RDPS_DewPointDepression_IsbL-0005_RLatLon0.09_PT070H.grib2 2026-04-30 09:01 193
20260430T06Z_MSC_RDPS_DewPointDepression_IsbL-0010_RLatLon0.09_PT070H.grib2 2026-04-30 09:01 193
20260430T06Z_MSC_RDPS_DewPointDepression_IsbL-0020_RLatLon0.09_PT070H.grib2 2026-04-30 09:01 193
20260430T06Z_MSC_RDPS_DewPointDepression_IsbL-0030_RLatLon0.09_PT070H.grib2 2026-04-30 09:01 193
20260430T06Z_MSC_RDPS_DewPointDepression_IsbL-0050_RLatLon0.09_PT070H.grib2 2026-04-30 09:01 104K
20260430T06Z_MSC_RDPS_DewPointDepression_IsbL-0100_RLatLon0.09_PT070H.grib2 2026-04-30 09:01 121K
20260430T06Z_MSC_RDPS_DewPointDepression_IsbL-0150_RLatLon0.09_PT070H.grib2 2026-04-30 09:01 150K
20260430T06Z_MSC_RDPS_DewPointDepression_IsbL-0175_RLatLon0.09_PT070H.grib2 2026-04-30 09:01 184K
20260430T06Z_MSC_RDPS_DewPointDepression_IsbL-0200_RLatLon0.09_PT070H.grib2 2026-04-30 09:01 217K
20260430T06Z_MSC_RDPS_DewPointDepression_IsbL-0225_RLatLon0.09_PT070H.grib2 2026-04-30 09:01 252K
20260430T06Z_MSC_RDPS_DewPointDepression_IsbL-0250_RLatLon0.09_PT070H.grib2 2026-04-30 09:01 291K
20260430T06Z_MSC_RDPS_DewPointDepression_IsbL-0275_RLatLon0.09_PT070H.grib2 2026-04-30 09:01 304K
20260430T06Z_MSC_RDPS_DewPointDepression_IsbL-0300_RLatLon0.09_PT070H.grib2 2026-04-30 09:01 324K
20260430T06Z_MSC_RDPS_DewPointDepression_IsbL-0350_RLatLon0.09_PT070H.grib2 2026-04-30 09:01 333K
20260430T06Z_MSC_RDPS_DewPointDepression_IsbL-0400_RLatLon0.09_PT070H.grib2 2026-04-30 09:01 341K
20260430T06Z_MSC_RDPS_DewPointDepression_IsbL-0450_RLatLon0.09_PT070H.grib2 2026-04-30 09:01 349K
20260430T06Z_MSC_RDPS_DewPointDepression_IsbL-0500_RLatLon0.09_PT070H.grib2 2026-04-30 09:01 354K
20260430T06Z_MSC_RDPS_DewPointDepression_IsbL-0550_RLatLon0.09_PT070H.grib2 2026-04-30 09:01 366K
20260430T06Z_MSC_RDPS_DewPointDepression_IsbL-0600_RLatLon0.09_PT070H.grib2 2026-04-30 09:01 377K
20260430T06Z_MSC_RDPS_DewPointDepression_IsbL-0650_RLatLon0.09_PT070H.grib2 2026-04-30 09:01 383K
20260430T06Z_MSC_RDPS_DewPointDepression_IsbL-0700_RLatLon0.09_PT070H.grib2 2026-04-30 09:01 393K
20260430T06Z_MSC_RDPS_DewPointDepression_IsbL-0750_RLatLon0.09_PT070H.grib2 2026-04-30 09:01 410K
20260430T06Z_MSC_RDPS_DewPointDepression_IsbL-0800_RLatLon0.09_PT070H.grib2 2026-04-30 09:01 434K
20260430T06Z_MSC_RDPS_DewPointDepression_IsbL-0850_RLatLon0.09_PT070H.grib2 2026-04-30 09:01 466K
20260430T06Z_MSC_RDPS_DewPointDepression_IsbL-0875_RLatLon0.09_PT070H.grib2 2026-04-30 09:01 471K
20260430T06Z_MSC_RDPS_DewPointDepression_IsbL-0900_RLatLon0.09_PT070H.grib2 2026-04-30 09:01 460K
20260430T06Z_MSC_RDPS_DewPointDepression_IsbL-0925_RLatLon0.09_PT070H.grib2 2026-04-30 09:01 444K
20260430T06Z_MSC_RDPS_DewPointDepression_IsbL-0950_RLatLon0.09_PT070H.grib2 2026-04-30 09:01 437K
20260430T06Z_MSC_RDPS_DewPointDepression_IsbL-0970_RLatLon0.09_PT070H.grib2 2026-04-30 09:01 430K
20260430T06Z_MSC_RDPS_DewPointDepression_IsbL-0985_RLatLon0.09_PT070H.grib2 2026-04-30 09:01 425K
20260430T06Z_MSC_RDPS_DewPointDepression_IsbL-1000_RLatLon0.09_PT070H.grib2 2026-04-30 09:01 418K
20260430T06Z_MSC_RDPS_DewPointDepression_IsbL-1015_RLatLon0.09_PT070H.grib2 2026-04-30 09:01 409K
20260430T06Z_MSC_RDPS_DewPoint_AGL-2m_RLatLon0.09_PT070H.grib2 2026-04-30 09:01 302K
20260430T06Z_MSC_RDPS_DownwardLongwaveRadiationFlux-Accum_Sfc_RLatLon0.09_PT070H.grib2 2026-04-30 09:01 421K
20260430T06Z_MSC_RDPS_DownwardShortwaveRadiationFlux-Accum_NTAtm_RLatLon0.09_PT070H.grib2 2026-04-30 09:01 161K
20260430T06Z_MSC_RDPS_DownwardShortwaveRadiationFlux-Accum_Sfc_RLatLon0.09_PT070H.grib2 2026-04-30 09:01 618K
20260430T06Z_MSC_RDPS_FreezingRain-Accum1h_Sfc_RLatLon0.09_PT070H.grib2 2026-04-30 09:01 24K
20260430T06Z_MSC_RDPS_FreezingRain-Accum_Sfc_RLatLon0.09_PT070H.grib2 2026-04-30 09:01 202K
20260430T06Z_MSC_RDPS_GeopotentialHeight_IsbL-0001_RLatLon0.09_PT070H.grib2 2026-04-30 09:01 306K
20260430T06Z_MSC_RDPS_GeopotentialHeight_IsbL-0005_RLatLon0.09_PT070H.grib2 2026-04-30 09:01 332K
20260430T06Z_MSC_RDPS_GeopotentialHeight_IsbL-0010_RLatLon0.09_PT070H.grib2 2026-04-30 09:01 300K
20260430T06Z_MSC_RDPS_GeopotentialHeight_IsbL-0020_RLatLon0.09_PT070H.grib2 2026-04-30 09:01 394K
20260430T06Z_MSC_RDPS_GeopotentialHeight_IsbL-0030_RLatLon0.09_PT070H.grib2 2026-04-30 09:01 302K
20260430T06Z_MSC_RDPS_GeopotentialHeight_IsbL-0050_RLatLon0.09_PT070H.grib2 2026-04-30 09:01 306K
20260430T06Z_MSC_RDPS_GeopotentialHeight_IsbL-0100_RLatLon0.09_PT070H.grib2 2026-04-30 09:01 283K
20260430T06Z_MSC_RDPS_GeopotentialHeight_IsbL-0150_RLatLon0.09_PT070H.grib2 2026-04-30 09:01 228K
20260430T06Z_MSC_RDPS_GeopotentialHeight_IsbL-0175_RLatLon0.09_PT070H.grib2 2026-04-30 09:01 260K
20260430T06Z_MSC_RDPS_GeopotentialHeight_IsbL-0200_RLatLon0.09_PT070H.grib2 2026-04-30 09:01 262K
20260430T06Z_MSC_RDPS_GeopotentialHeight_IsbL-0225_RLatLon0.09_PT070H.grib2 2026-04-30 09:01 263K
20260430T06Z_MSC_RDPS_GeopotentialHeight_IsbL-0250_RLatLon0.09_PT070H.grib2 2026-04-30 09:01 264K
20260430T06Z_MSC_RDPS_GeopotentialHeight_IsbL-0275_RLatLon0.09_PT070H.grib2 2026-04-30 09:01 263K
20260430T06Z_MSC_RDPS_GeopotentialHeight_IsbL-0300_RLatLon0.09_PT070H.grib2 2026-04-30 09:01 262K
20260430T06Z_MSC_RDPS_GeopotentialHeight_IsbL-0350_RLatLon0.09_PT070H.grib2 2026-04-30 09:01 228K
20260430T06Z_MSC_RDPS_GeopotentialHeight_IsbL-0400_RLatLon0.09_PT070H.grib2 2026-04-30 09:01 226K
20260430T06Z_MSC_RDPS_GeopotentialHeight_IsbL-0450_RLatLon0.09_PT070H.grib2 2026-04-30 09:01 295K
20260430T06Z_MSC_RDPS_GeopotentialHeight_IsbL-0500_RLatLon0.09_PT070H.grib2 2026-04-30 09:01 291K
20260430T06Z_MSC_RDPS_GeopotentialHeight_IsbL-0550_RLatLon0.09_PT070H.grib2 2026-04-30 09:01 287K
20260430T06Z_MSC_RDPS_GeopotentialHeight_IsbL-0600_RLatLon0.09_PT070H.grib2 2026-04-30 09:01 285K
20260430T06Z_MSC_RDPS_GeopotentialHeight_IsbL-0650_RLatLon0.09_PT070H.grib2 2026-04-30 09:01 254K
20260430T06Z_MSC_RDPS_GeopotentialHeight_IsbL-0700_RLatLon0.09_PT070H.grib2 2026-04-30 09:01 253K
20260430T06Z_MSC_RDPS_GeopotentialHeight_IsbL-0750_RLatLon0.09_PT070H.grib2 2026-04-30 09:01 338K
20260430T06Z_MSC_RDPS_GeopotentialHeight_IsbL-0800_RLatLon0.09_PT070H.grib2 2026-04-30 09:01 345K
20260430T06Z_MSC_RDPS_GeopotentialHeight_IsbL-0850_RLatLon0.09_PT070H.grib2 2026-04-30 09:01 354K
20260430T06Z_MSC_RDPS_GeopotentialHeight_IsbL-0875_RLatLon0.09_PT070H.grib2 2026-04-30 09:01 357K
20260430T06Z_MSC_RDPS_GeopotentialHeight_IsbL-0900_RLatLon0.09_PT070H.grib2 2026-04-30 09:01 360K
20260430T06Z_MSC_RDPS_GeopotentialHeight_IsbL-0925_RLatLon0.09_PT070H.grib2 2026-04-30 09:01 361K
20260430T06Z_MSC_RDPS_GeopotentialHeight_IsbL-0950_RLatLon0.09_PT070H.grib2 2026-04-30 09:01 366K
20260430T06Z_MSC_RDPS_GeopotentialHeight_IsbL-0970_RLatLon0.09_PT070H.grib2 2026-04-30 09:01 371K
20260430T06Z_MSC_RDPS_GeopotentialHeight_IsbL-0985_RLatLon0.09_PT070H.grib2 2026-04-30 09:01 379K
20260430T06Z_MSC_RDPS_GeopotentialHeight_IsbL-1000_RLatLon0.09_PT070H.grib2 2026-04-30 09:01 389K
20260430T06Z_MSC_RDPS_GeopotentialHeight_IsbL-1015_RLatLon0.09_PT070H.grib2 2026-04-30 09:01 400K
20260430T06Z_MSC_RDPS_Humidex_Sfc_RLatLon0.09_PT070H.grib2 2026-04-30 09:01 2.4M
20260430T06Z_MSC_RDPS_IcePellets-Accum1h_Sfc_RLatLon0.09_PT070H.grib2 2026-04-30 09:01 2.5K
20260430T06Z_MSC_RDPS_IcePellets-Accum_Sfc_RLatLon0.09_PT070H.grib2 2026-04-30 09:01 23K
20260430T06Z_MSC_RDPS_KIndex_Sfc_RLatLon0.09_PT070H.grib2 2026-04-30 09:01 2.4M
20260430T06Z_MSC_RDPS_LatentHeatNetFlux_Sfc_RLatLon0.09_PT070H.grib2 2026-04-30 09:01 402K
20260430T06Z_MSC_RDPS_LiftedIndex-MU-VT_IsbL-0500_RLatLon0.09_PT070H.grib2 2026-04-30 09:01 2.4M
20260430T06Z_MSC_RDPS_NetLongwaveRadiationFlux-Accum_Sfc_RLatLon0.09_PT070H.grib2 2026-04-30 09:01 604K
20260430T06Z_MSC_RDPS_NetShortwaveRadiationFlux-Accum_Sfc_RLatLon0.09_PT070H.grib2 2026-04-30 09:01 620K
20260430T06Z_MSC_RDPS_PlanetaryBoundaryLayerHeight_Sfc_RLatLon0.09_PT070H.grib2 2026-04-30 09:01 1.1M
20260430T06Z_MSC_RDPS_Precip-Accum1h_Sfc_RLatLon0.09_PT070H.grib2 2026-04-30 09:01 1.2M
20260430T06Z_MSC_RDPS_Precip-Accum_Sfc_RLatLon0.09_PT070H.grib2 2026-04-30 09:01 2.2M
20260430T06Z_MSC_RDPS_PrecipRate_Sfc_RLatLon0.09_PT070H.grib2 2026-04-30 09:01 176K
20260430T06Z_MSC_RDPS_PrecipType-Instant_Sfc_RLatLon0.09_PT070H.grib2 2026-04-30 09:01 581K
20260430T06Z_MSC_RDPS_Pressure-Trend3h_Sfc_RLatLon0.09_PT070H.grib2 2026-04-30 09:01 1.2M
20260430T06Z_MSC_RDPS_Pressure_MSL_RLatLon0.09_PT070H.grib2 2026-04-30 09:01 322K
20260430T06Z_MSC_RDPS_Pressure_PVU-1.5_RLatLon0.09_PT070H.grib2 2026-04-30 09:01 2.5M
20260430T06Z_MSC_RDPS_Pressure_PVU-1_RLatLon0.09_PT070H.grib2 2026-04-30 09:01 2.4M
20260430T06Z_MSC_RDPS_Pressure_PVU-2_RLatLon0.09_PT070H.grib2 2026-04-30 09:01 2.4M
20260430T06Z_MSC_RDPS_Pressure_Sfc_RLatLon0.09_PT070H.grib2 2026-04-30 09:01 498K
20260430T06Z_MSC_RDPS_RadiativeTemp_Sfc_RLatLon0.09_PT070H.grib2 2026-04-30 09:01 302K
20260430T06Z_MSC_RDPS_Rain-Accum1h_Sfc_RLatLon0.09_PT070H.grib2 2026-04-30 09:01 610K
20260430T06Z_MSC_RDPS_Rain-Accum_Sfc_RLatLon0.09_PT070H.grib2 2026-04-30 09:01 1.8M
20260430T06Z_MSC_RDPS_RelativeHumidity_AGL-2m_RLatLon0.09_PT070H.grib2 2026-04-30 09:01 1.0M
20260430T06Z_MSC_RDPS_RelativeHumidity_IsbL-0010_RLatLon0.09_PT070H.grib2 2026-04-30 09:01 610K
20260430T06Z_MSC_RDPS_RelativeHumidity_IsbL-0020_RLatLon0.09_PT070H.grib2 2026-04-30 09:01 654K
20260430T06Z_MSC_RDPS_RelativeHumidity_IsbL-0030_RLatLon0.09_PT070H.grib2 2026-04-30 09:01 602K
20260430T06Z_MSC_RDPS_RelativeHumidity_IsbL-0050_RLatLon0.09_PT070H.grib2 2026-04-30 09:01 310K
20260430T06Z_MSC_RDPS_RelativeHumidity_IsbL-0100_RLatLon0.09_PT070H.grib2 2026-04-30 09:01 276K
20260430T06Z_MSC_RDPS_RelativeHumidity_IsbL-0150_RLatLon0.09_PT070H.grib2 2026-04-30 09:01 412K
20260430T06Z_MSC_RDPS_RelativeHumidity_IsbL-0175_RLatLon0.09_PT070H.grib2 2026-04-30 09:01 475K
20260430T06Z_MSC_RDPS_RelativeHumidity_IsbL-0200_RLatLon0.09_PT070H.grib2 2026-04-30 09:01 548K
20260430T06Z_MSC_RDPS_RelativeHumidity_IsbL-0225_RLatLon0.09_PT070H.grib2 2026-04-30 09:01 616K
20260430T06Z_MSC_RDPS_RelativeHumidity_IsbL-0250_RLatLon0.09_PT070H.grib2 2026-04-30 09:01 679K
20260430T06Z_MSC_RDPS_RelativeHumidity_IsbL-0275_RLatLon0.09_PT070H.grib2 2026-04-30 09:01 702K
20260430T06Z_MSC_RDPS_RelativeHumidity_IsbL-0300_RLatLon0.09_PT070H.grib2 2026-04-30 09:01 748K
20260430T06Z_MSC_RDPS_RelativeHumidity_IsbL-0350_RLatLon0.09_PT070H.grib2 2026-04-30 09:01 776K
20260430T06Z_MSC_RDPS_RelativeHumidity_IsbL-0400_RLatLon0.09_PT070H.grib2 2026-04-30 09:01 791K
20260430T06Z_MSC_RDPS_RelativeHumidity_IsbL-0450_RLatLon0.09_PT070H.grib2 2026-04-30 09:01 798K
20260430T06Z_MSC_RDPS_RelativeHumidity_IsbL-0500_RLatLon0.09_PT070H.grib2 2026-04-30 09:01 803K
20260430T06Z_MSC_RDPS_RelativeHumidity_IsbL-0550_RLatLon0.09_PT070H.grib2 2026-04-30 09:01 822K
20260430T06Z_MSC_RDPS_RelativeHumidity_IsbL-0600_RLatLon0.09_PT070H.grib2 2026-04-30 09:01 844K
20260430T06Z_MSC_RDPS_RelativeHumidity_IsbL-0650_RLatLon0.09_PT070H.grib2 2026-04-30 09:01 855K
20260430T06Z_MSC_RDPS_RelativeHumidity_IsbL-0700_RLatLon0.09_PT070H.grib2 2026-04-30 09:01 878K
20260430T06Z_MSC_RDPS_RelativeHumidity_IsbL-0750_RLatLon0.09_PT070H.grib2 2026-04-30 09:01 921K
20260430T06Z_MSC_RDPS_RelativeHumidity_IsbL-0800_RLatLon0.09_PT070H.grib2 2026-04-30 09:01 1.0M
20260430T06Z_MSC_RDPS_RelativeHumidity_IsbL-0850_RLatLon0.09_PT070H.grib2 2026-04-30 09:01 1.0M
20260430T06Z_MSC_RDPS_RelativeHumidity_IsbL-0875_RLatLon0.09_PT070H.grib2 2026-04-30 09:01 1.0M
20260430T06Z_MSC_RDPS_RelativeHumidity_IsbL-0900_RLatLon0.09_PT070H.grib2 2026-04-30 09:01 1.1M
20260430T06Z_MSC_RDPS_RelativeHumidity_IsbL-0925_RLatLon0.09_PT070H.grib2 2026-04-30 09:01 1.0M
20260430T06Z_MSC_RDPS_RelativeHumidity_IsbL-0950_RLatLon0.09_PT070H.grib2 2026-04-30 09:01 1.0M
20260430T06Z_MSC_RDPS_RelativeHumidity_IsbL-0970_RLatLon0.09_PT070H.grib2 2026-04-30 09:01 1.0M
20260430T06Z_MSC_RDPS_RelativeHumidity_IsbL-0985_RLatLon0.09_PT070H.grib2 2026-04-30 09:01 1.0M
20260430T06Z_MSC_RDPS_RelativeHumidity_IsbL-1000_RLatLon0.09_PT070H.grib2 2026-04-30 09:01 1.0M
20260430T06Z_MSC_RDPS_RelativeHumidity_IsbL-1015_RLatLon0.09_PT070H.grib2 2026-04-30 09:01 1.0M
20260430T06Z_MSC_RDPS_Runoff-Accum_Sfc_RLatLon0.09_PT070H.grib2 2026-04-30 09:01 67K
20260430T06Z_MSC_RDPS_SWEATIndex_Sfc_RLatLon0.09_PT070H.grib2 2026-04-30 09:01 2.4M
20260430T06Z_MSC_RDPS_SeeingIndex_EAtm_RLatLon0.09_PT070H.grib2 2026-04-30 09:01 1.0M
20260430T06Z_MSC_RDPS_SensibleHeatNetFlux_Sfc_RLatLon0.09_PT070H.grib2 2026-04-30 09:01 287K
20260430T06Z_MSC_RDPS_ShowalterIndex_IsbL-0500_RLatLon0.09_PT070H.grib2 2026-04-30 09:01 2.6M
20260430T06Z_MSC_RDPS_SkyTransparencyIndex_EAtm_RLatLon0.09_PT070H.grib2 2026-04-30 09:01 699K
20260430T06Z_MSC_RDPS_Snow-Accum1h_Sfc_RLatLon0.09_PT070H.grib2 2026-04-30 09:01 454K
20260430T06Z_MSC_RDPS_Snow-Accum_Sfc_RLatLon0.09_PT070H.grib2 2026-04-30 09:01 766K
20260430T06Z_MSC_RDPS_SnowDensity_Sfc_RLatLon0.09_PT070H.grib2 2026-04-30 09:01 178K
20260430T06Z_MSC_RDPS_SnowDepth_Sfc_RLatLon0.09_PT070H.grib2 2026-04-30 09:01 660K
20260430T06Z_MSC_RDPS_SoilTemp_DBS-0to10cm_RLatLon0.09_PT070H.grib2 2026-04-30 09:01 245K
20260430T06Z_MSC_RDPS_SoilTemp_Sfc_RLatLon0.09_PT070H.grib2 2026-04-30 09:01 261K
20260430T06Z_MSC_RDPS_SoilVolumetricIceContent_Sfc_RLatLon0.09_PT070H.grib2 2026-04-30 09:01 159K
20260430T06Z_MSC_RDPS_SoilVolumetricWaterContent_DBS-0to10cm_RLatLon0.09_PT070H.grib2 2026-04-30 09:01 273K
20260430T06Z_MSC_RDPS_SoilVolumetricWaterContent_DBS-0to1cm_RLatLon0.09_PT070H.grib2 2026-04-30 09:01 343K
20260430T06Z_MSC_RDPS_SpecificHumidity_AGL-120m_RLatLon0.09_PT070H.grib2 2026-04-30 09:01 484K
20260430T06Z_MSC_RDPS_SpecificHumidity_AGL-2m_RLatLon0.09_PT070H.grib2 2026-04-30 09:01 647K
20260430T06Z_MSC_RDPS_SpecificHumidity_AGL-40m_RLatLon0.09_PT070H.grib2 2026-04-30 09:01 489K
20260430T06Z_MSC_RDPS_SpecificHumidity_AGL-80m_RLatLon0.09_PT070H.grib2 2026-04-30 09:01 485K
20260430T06Z_MSC_RDPS_SpecificHumidity_IsbL-0001_RLatLon0.09_PT070H.grib2 2026-04-30 09:01 357K
20260430T06Z_MSC_RDPS_SpecificHumidity_IsbL-0005_RLatLon0.09_PT070H.grib2 2026-04-30 09:01 356K
20260430T06Z_MSC_RDPS_SpecificHumidity_IsbL-0010_RLatLon0.09_PT070H.grib2 2026-04-30 09:01 388K
20260430T06Z_MSC_RDPS_SpecificHumidity_IsbL-0020_RLatLon0.09_PT070H.grib2 2026-04-30 09:01 373K
20260430T06Z_MSC_RDPS_SpecificHumidity_IsbL-0030_RLatLon0.09_PT070H.grib2 2026-04-30 09:01 469K
20260430T06Z_MSC_RDPS_SpecificHumidity_IsbL-0050_RLatLon0.09_PT070H.grib2 2026-04-30 09:01 473K
20260430T06Z_MSC_RDPS_SpecificHumidity_IsbL-0100_RLatLon0.09_PT070H.grib2 2026-04-30 09:01 442K
20260430T06Z_MSC_RDPS_SpecificHumidity_IsbL-0150_RLatLon0.09_PT070H.grib2 2026-04-30 09:01 453K
20260430T06Z_MSC_RDPS_SpecificHumidity_IsbL-0175_RLatLon0.09_PT070H.grib2 2026-04-30 09:01 435K
20260430T06Z_MSC_RDPS_SpecificHumidity_IsbL-0200_RLatLon0.09_PT070H.grib2 2026-04-30 09:01 447K
20260430T06Z_MSC_RDPS_SpecificHumidity_IsbL-0225_RLatLon0.09_PT070H.grib2 2026-04-30 09:01 451K
20260430T06Z_MSC_RDPS_SpecificHumidity_IsbL-0250_RLatLon0.09_PT070H.grib2 2026-04-30 09:01 553K
20260430T06Z_MSC_RDPS_SpecificHumidity_IsbL-0275_RLatLon0.09_PT070H.grib2 2026-04-30 09:01 468K
20260430T06Z_MSC_RDPS_SpecificHumidity_IsbL-0300_RLatLon0.09_PT070H.grib2 2026-04-30 09:01 569K
20260430T06Z_MSC_RDPS_SpecificHumidity_IsbL-0350_RLatLon0.09_PT070H.grib2 2026-04-30 09:01 445K
20260430T06Z_MSC_RDPS_SpecificHumidity_IsbL-0400_RLatLon0.09_PT070H.grib2 2026-04-30 09:01 524K
20260430T06Z_MSC_RDPS_SpecificHumidity_IsbL-0450_RLatLon0.09_PT070H.grib2 2026-04-30 09:01 575K
20260430T06Z_MSC_RDPS_SpecificHumidity_IsbL-0500_RLatLon0.09_PT070H.grib2 2026-04-30 09:01 509K
20260430T06Z_MSC_RDPS_SpecificHumidity_IsbL-0550_RLatLon0.09_PT070H.grib2 2026-04-30 09:01 583K
20260430T06Z_MSC_RDPS_SpecificHumidity_IsbL-0600_RLatLon0.09_PT070H.grib2 2026-04-30 09:01 637K
20260430T06Z_MSC_RDPS_SpecificHumidity_IsbL-0650_RLatLon0.09_PT070H.grib2 2026-04-30 09:01 553K
20260430T06Z_MSC_RDPS_SpecificHumidity_IsbL-0700_RLatLon0.09_PT070H.grib2 2026-04-30 09:01 596K
20260430T06Z_MSC_RDPS_SpecificHumidity_IsbL-0750_RLatLon0.09_PT070H.grib2 2026-04-30 09:01 647K
20260430T06Z_MSC_RDPS_SpecificHumidity_IsbL-0800_RLatLon0.09_PT070H.grib2 2026-04-30 09:01 721K
20260430T06Z_MSC_RDPS_SpecificHumidity_IsbL-0850_RLatLon0.09_PT070H.grib2 2026-04-30 09:01 794K
20260430T06Z_MSC_RDPS_SpecificHumidity_IsbL-0875_RLatLon0.09_PT070H.grib2 2026-04-30 09:01 824K
20260430T06Z_MSC_RDPS_SpecificHumidity_IsbL-0900_RLatLon0.09_PT070H.grib2 2026-04-30 09:01 837K
20260430T06Z_MSC_RDPS_SpecificHumidity_IsbL-0925_RLatLon0.09_PT070H.grib2 2026-04-30 09:01 837K
20260430T06Z_MSC_RDPS_SpecificHumidity_IsbL-0950_RLatLon0.09_PT070H.grib2 2026-04-30 09:01 696K
20260430T06Z_MSC_RDPS_SpecificHumidity_IsbL-0970_RLatLon0.09_PT070H.grib2 2026-04-30 09:01 686K
20260430T06Z_MSC_RDPS_SpecificHumidity_IsbL-0985_RLatLon0.09_PT070H.grib2 2026-04-30 09:01 679K
20260430T06Z_MSC_RDPS_SpecificHumidity_IsbL-1000_RLatLon0.09_PT070H.grib2 2026-04-30 09:01 672K
20260430T06Z_MSC_RDPS_SpecificHumidity_IsbL-1015_RLatLon0.09_PT070H.grib2 2026-04-30 09:01 660K
20260430T06Z_MSC_RDPS_SpecificHumidity_Sfc_RLatLon0.09_PT070H.grib2 2026-04-30 09:01 313K
20260430T06Z_MSC_RDPS_StormRelativeHelicity_EtaL-10000_RLatLon0.09_PT070H.grib2 2026-04-30 09:01 1.1M
20260430T06Z_MSC_RDPS_StormSeverityIndex_EtaL-10000_RLatLon0.09_PT070H.grib2 2026-04-30 09:01 1.2M
20260430T06Z_MSC_RDPS_Thickness_IsbL-0850to0700_RLatLon0.09_PT070H.grib2 2026-04-30 09:01 175K
20260430T06Z_MSC_RDPS_Thickness_IsbL-1000to0500_RLatLon0.09_PT070H.grib2 2026-04-30 09:01 195K
20260430T06Z_MSC_RDPS_Thickness_IsbL-1000to0850_RLatLon0.09_PT070H.grib2 2026-04-30 09:01 257K
20260430T06Z_MSC_RDPS_TotalCloudCover_Sfc_RLatLon0.09_PT070H.grib2 2026-04-30 09:01 650K
20260430T06Z_MSC_RDPS_TotalTotalsIndex_Sfc_RLatLon0.09_PT070H.grib2 2026-04-30 09:01 2.4M
20260430T06Z_MSC_RDPS_UVIndex-ClearSky_Sfc_RLatLon0.09_PT070H.grib2 2026-04-30 09:01 116K
20260430T06Z_MSC_RDPS_UVIndex_Sfc_RLatLon0.09_PT070H.grib2 2026-04-30 09:01 203K
20260430T06Z_MSC_RDPS_UpwardLongwaveRadiationFlux_NTAtm_RLatLon0.09_PT070H.grib2 2026-04-30 09:01 483K
20260430T06Z_MSC_RDPS_UpwardShortwaveRadiationFlux_NTAtm_RLatLon0.09_PT070H.grib2 2026-04-30 09:01 161K
20260430T06Z_MSC_RDPS_VerticalVelocity_IsbL-0250_RLatLon0.09_PT070H.grib2 2026-04-30 09:01 548K
20260430T06Z_MSC_RDPS_VerticalVelocity_IsbL-0500_RLatLon0.09_PT070H.grib2 2026-04-30 09:01 535K
20260430T06Z_MSC_RDPS_VerticalVelocity_IsbL-0700_RLatLon0.09_PT070H.grib2 2026-04-30 09:01 590K
20260430T06Z_MSC_RDPS_VerticalVelocity_IsbL-0850_RLatLon0.09_PT070H.grib2 2026-04-30 09:01 687K
20260430T06Z_MSC_RDPS_VerticalWindShear_EtaL-6500_RLatLon0.09_PT070H.grib2 2026-04-30 09:01 1.2M
20260430T06Z_MSC_RDPS_WindChill_Sfc_RLatLon0.09_PT070H.grib2 2026-04-30 09:01 1.1M
20260430T06Z_MSC_RDPS_WindDir_AGL-10m_RLatLon0.09_PT070H.grib2 2026-04-30 09:01 951K
20260430T06Z_MSC_RDPS_WindDir_AGL-120m_RLatLon0.09_PT070H.grib2 2026-04-30 09:01 587K
20260430T06Z_MSC_RDPS_WindDir_AGL-40m_RLatLon0.09_PT070H.grib2 2026-04-30 09:01 619K
20260430T06Z_MSC_RDPS_WindDir_AGL-80m_RLatLon0.09_PT070H.grib2 2026-04-30 09:01 598K
20260430T06Z_MSC_RDPS_WindDir_IsbL-0001_RLatLon0.09_PT070H.grib2 2026-04-30 09:01 317K
20260430T06Z_MSC_RDPS_WindDir_IsbL-0005_RLatLon0.09_PT070H.grib2 2026-04-30 09:01 399K
20260430T06Z_MSC_RDPS_WindDir_IsbL-0010_RLatLon0.09_PT070H.grib2 2026-04-30 09:01 392K
20260430T06Z_MSC_RDPS_WindDir_IsbL-0020_RLatLon0.09_PT070H.grib2 2026-04-30 09:01 429K
20260430T06Z_MSC_RDPS_WindDir_IsbL-0030_RLatLon0.09_PT070H.grib2 2026-04-30 09:01 423K
20260430T06Z_MSC_RDPS_WindDir_IsbL-0050_RLatLon0.09_PT070H.grib2 2026-04-30 09:01 413K
20260430T06Z_MSC_RDPS_WindDir_IsbL-0100_RLatLon0.09_PT070H.grib2 2026-04-30 09:01 417K
20260430T06Z_MSC_RDPS_WindDir_IsbL-0150_RLatLon0.09_PT070H.grib2 2026-04-30 09:01 407K
20260430T06Z_MSC_RDPS_WindDir_IsbL-0175_RLatLon0.09_PT070H.grib2 2026-04-30 09:01 431K
20260430T06Z_MSC_RDPS_WindDir_IsbL-0200_RLatLon0.09_PT070H.grib2 2026-04-30 09:01 446K
20260430T06Z_MSC_RDPS_WindDir_IsbL-0225_RLatLon0.09_PT070H.grib2 2026-04-30 09:01 448K
20260430T06Z_MSC_RDPS_WindDir_IsbL-0250_RLatLon0.09_PT070H.grib2 2026-04-30 09:01 450K
20260430T06Z_MSC_RDPS_WindDir_IsbL-0275_RLatLon0.09_PT070H.grib2 2026-04-30 09:01 476K
20260430T06Z_MSC_RDPS_WindDir_IsbL-0300_RLatLon0.09_PT070H.grib2 2026-04-30 09:01 474K
20260430T06Z_MSC_RDPS_WindDir_IsbL-0350_RLatLon0.09_PT070H.grib2 2026-04-30 09:01 500K
20260430T06Z_MSC_RDPS_WindDir_IsbL-0400_RLatLon0.09_PT070H.grib2 2026-04-30 09:01 518K
20260430T06Z_MSC_RDPS_WindDir_IsbL-0450_RLatLon0.09_PT070H.grib2 2026-04-30 09:01 528K
20260430T06Z_MSC_RDPS_WindDir_IsbL-0500_RLatLon0.09_PT070H.grib2 2026-04-30 09:01 537K
20260430T06Z_MSC_RDPS_WindDir_IsbL-0550_RLatLon0.09_PT070H.grib2 2026-04-30 09:01 548K
20260430T06Z_MSC_RDPS_WindDir_IsbL-0600_RLatLon0.09_PT070H.grib2 2026-04-30 09:01 571K
20260430T06Z_MSC_RDPS_WindDir_IsbL-0650_RLatLon0.09_PT070H.grib2 2026-04-30 09:01 604K
20260430T06Z_MSC_RDPS_WindDir_IsbL-0700_RLatLon0.09_PT070H.grib2 2026-04-30 09:01 646K
20260430T06Z_MSC_RDPS_WindDir_IsbL-0750_RLatLon0.09_PT070H.grib2 2026-04-30 09:01 691K
20260430T06Z_MSC_RDPS_WindDir_IsbL-0800_RLatLon0.09_PT070H.grib2 2026-04-30 09:01 755K
20260430T06Z_MSC_RDPS_WindDir_IsbL-0850_RLatLon0.09_PT070H.grib2 2026-04-30 09:01 843K
20260430T06Z_MSC_RDPS_WindDir_IsbL-0875_RLatLon0.09_PT070H.grib2 2026-04-30 09:01 875K
20260430T06Z_MSC_RDPS_WindDir_IsbL-0900_RLatLon0.09_PT070H.grib2 2026-04-30 09:01 892K
20260430T06Z_MSC_RDPS_WindDir_IsbL-0925_RLatLon0.09_PT070H.grib2 2026-04-30 09:01 904K
20260430T06Z_MSC_RDPS_WindDir_IsbL-0950_RLatLon0.09_PT070H.grib2 2026-04-30 09:01 903K
20260430T06Z_MSC_RDPS_WindDir_IsbL-0970_RLatLon0.09_PT070H.grib2 2026-04-30 09:01 912K
20260430T06Z_MSC_RDPS_WindDir_IsbL-0985_RLatLon0.09_PT070H.grib2 2026-04-30 09:01 917K
20260430T06Z_MSC_RDPS_WindDir_IsbL-1000_RLatLon0.09_PT070H.grib2 2026-04-30 09:01 927K
20260430T06Z_MSC_RDPS_WindDir_IsbL-1015_RLatLon0.09_PT070H.grib2 2026-04-30 09:01 942K
20260430T06Z_MSC_RDPS_WindGust-Max_AGL-10m_RLatLon0.09_PT070H.grib2 2026-04-30 09:01 1.0M
20260430T06Z_MSC_RDPS_WindGust-Min_AGL-10m_RLatLon0.09_PT070H.grib2 2026-04-30 09:01 965K
20260430T06Z_MSC_RDPS_WindGust_AGL-10m_RLatLon0.09_PT070H.grib2 2026-04-30 09:01 1.0M
20260430T06Z_MSC_RDPS_WindSpeed_AGL-10m_RLatLon0.09_PT070H.grib2 2026-04-30 09:01 831K
20260430T06Z_MSC_RDPS_WindSpeed_AGL-120m_RLatLon0.09_PT070H.grib2 2026-04-30 09:01 534K
20260430T06Z_MSC_RDPS_WindSpeed_AGL-40m_RLatLon0.09_PT070H.grib2 2026-04-30 09:01 536K
20260430T06Z_MSC_RDPS_WindSpeed_AGL-80m_RLatLon0.09_PT070H.grib2 2026-04-30 09:01 534K
20260430T06Z_MSC_RDPS_WindSpeed_IsbL-0001_RLatLon0.09_PT070H.grib2 2026-04-30 09:01 329K
20260430T06Z_MSC_RDPS_WindSpeed_IsbL-0005_RLatLon0.09_PT070H.grib2 2026-04-30 09:01 383K
20260430T06Z_MSC_RDPS_WindSpeed_IsbL-0010_RLatLon0.09_PT070H.grib2 2026-04-30 09:01 396K
20260430T06Z_MSC_RDPS_WindSpeed_IsbL-0020_RLatLon0.09_PT070H.grib2 2026-04-30 09:01 417K
20260430T06Z_MSC_RDPS_WindSpeed_IsbL-0030_RLatLon0.09_PT070H.grib2 2026-04-30 09:01 318K
20260430T06Z_MSC_RDPS_WindSpeed_IsbL-0050_RLatLon0.09_PT070H.grib2 2026-04-30 09:01 349K
20260430T06Z_MSC_RDPS_WindSpeed_IsbL-0100_RLatLon0.09_PT070H.grib2 2026-04-30 09:01 475K
20260430T06Z_MSC_RDPS_WindSpeed_IsbL-0150_RLatLon0.09_PT070H.grib2 2026-04-30 09:01 383K
20260430T06Z_MSC_RDPS_WindSpeed_IsbL-0175_RLatLon0.09_PT070H.grib2 2026-04-30 09:01 429K
20260430T06Z_MSC_RDPS_WindSpeed_IsbL-0200_RLatLon0.09_PT070H.grib2 2026-04-30 09:01 444K
20260430T06Z_MSC_RDPS_WindSpeed_IsbL-0225_RLatLon0.09_PT070H.grib2 2026-04-30 09:01 449K
20260430T06Z_MSC_RDPS_WindSpeed_IsbL-0250_RLatLon0.09_PT070H.grib2 2026-04-30 09:01 452K
20260430T06Z_MSC_RDPS_WindSpeed_IsbL-0275_RLatLon0.09_PT070H.grib2 2026-04-30 09:01 469K
20260430T06Z_MSC_RDPS_WindSpeed_IsbL-0300_RLatLon0.09_PT070H.grib2 2026-04-30 09:01 467K
20260430T06Z_MSC_RDPS_WindSpeed_IsbL-0350_RLatLon0.09_PT070H.grib2 2026-04-30 09:01 479K
20260430T06Z_MSC_RDPS_WindSpeed_IsbL-0400_RLatLon0.09_PT070H.grib2 2026-04-30 09:01 466K
20260430T06Z_MSC_RDPS_WindSpeed_IsbL-0450_RLatLon0.09_PT070H.grib2 2026-04-30 09:01 465K
20260430T06Z_MSC_RDPS_WindSpeed_IsbL-0500_RLatLon0.09_PT070H.grib2 2026-04-30 09:01 464K
20260430T06Z_MSC_RDPS_WindSpeed_IsbL-0550_RLatLon0.09_PT070H.grib2 2026-04-30 09:01 582K
20260430T06Z_MSC_RDPS_WindSpeed_IsbL-0600_RLatLon0.09_PT070H.grib2 2026-04-30 09:01 590K
20260430T06Z_MSC_RDPS_WindSpeed_IsbL-0650_RLatLon0.09_PT070H.grib2 2026-04-30 09:01 608K
20260430T06Z_MSC_RDPS_WindSpeed_IsbL-0700_RLatLon0.09_PT070H.grib2 2026-04-30 09:01 675K
20260430T06Z_MSC_RDPS_WindSpeed_IsbL-0750_RLatLon0.09_PT070H.grib2 2026-04-30 09:01 704K
20260430T06Z_MSC_RDPS_WindSpeed_IsbL-0800_RLatLon0.09_PT070H.grib2 2026-04-30 09:01 749K
20260430T06Z_MSC_RDPS_WindSpeed_IsbL-0850_RLatLon0.09_PT070H.grib2 2026-04-30 09:01 810K
20260430T06Z_MSC_RDPS_WindSpeed_IsbL-0875_RLatLon0.09_PT070H.grib2 2026-04-30 09:01 834K
20260430T06Z_MSC_RDPS_WindSpeed_IsbL-0900_RLatLon0.09_PT070H.grib2 2026-04-30 09:01 848K
20260430T06Z_MSC_RDPS_WindSpeed_IsbL-0925_RLatLon0.09_PT070H.grib2 2026-04-30 09:01 861K
20260430T06Z_MSC_RDPS_WindSpeed_IsbL-0950_RLatLon0.09_PT070H.grib2 2026-04-30 09:01 861K
20260430T06Z_MSC_RDPS_WindSpeed_IsbL-0970_RLatLon0.09_PT070H.grib2 2026-04-30 09:01 863K
20260430T06Z_MSC_RDPS_WindSpeed_IsbL-0985_RLatLon0.09_PT070H.grib2 2026-04-30 09:01 857K
20260430T06Z_MSC_RDPS_WindSpeed_IsbL-1000_RLatLon0.09_PT070H.grib2 2026-04-30 09:01 843K
20260430T06Z_MSC_RDPS_WindSpeed_IsbL-1015_RLatLon0.09_PT070H.grib2 2026-04-30 09:01 831K
20260430T06Z_MSC_RDPS_WindU_AGL-10m_RLatLon0.09_PT070H.grib2 2026-04-30 09:01 426K
20260430T06Z_MSC_RDPS_WindU_AGL-120m_RLatLon0.09_PT070H.grib2 2026-04-30 09:01 414K
20260430T06Z_MSC_RDPS_WindU_AGL-40m_RLatLon0.09_PT070H.grib2 2026-04-30 09:01 532K
20260430T06Z_MSC_RDPS_WindU_AGL-80m_RLatLon0.09_PT070H.grib2 2026-04-30 09:01 531K
20260430T06Z_MSC_RDPS_WindU_IsbL-0001_RLatLon0.09_PT070H.grib2 2026-04-30 09:01 240K
20260430T06Z_MSC_RDPS_WindU_IsbL-0005_RLatLon0.09_PT070H.grib2 2026-04-30 09:01 282K
20260430T06Z_MSC_RDPS_WindU_IsbL-0010_RLatLon0.09_PT070H.grib2 2026-04-30 09:01 293K
20260430T06Z_MSC_RDPS_WindU_IsbL-0020_RLatLon0.09_PT070H.grib2 2026-04-30 09:01 311K
20260430T06Z_MSC_RDPS_WindU_IsbL-0030_RLatLon0.09_PT070H.grib2 2026-04-30 09:01 312K
20260430T06Z_MSC_RDPS_WindU_IsbL-0050_RLatLon0.09_PT070H.grib2 2026-04-30 09:01 379K
20260430T06Z_MSC_RDPS_WindU_IsbL-0100_RLatLon0.09_PT070H.grib2 2026-04-30 09:01 431K
20260430T06Z_MSC_RDPS_WindU_IsbL-0150_RLatLon0.09_PT070H.grib2 2026-04-30 09:01 398K
20260430T06Z_MSC_RDPS_WindU_IsbL-0175_RLatLon0.09_PT070H.grib2 2026-04-30 09:01 421K
20260430T06Z_MSC_RDPS_WindU_IsbL-0200_RLatLon0.09_PT070H.grib2 2026-04-30 09:01 338K
20260430T06Z_MSC_RDPS_WindU_IsbL-0225_RLatLon0.09_PT070H.grib2 2026-04-30 09:01 342K
20260430T06Z_MSC_RDPS_WindU_IsbL-0250_RLatLon0.09_PT070H.grib2 2026-04-30 09:01 343K
20260430T06Z_MSC_RDPS_WindU_IsbL-0275_RLatLon0.09_PT070H.grib2 2026-04-30 09:01 358K
20260430T06Z_MSC_RDPS_WindU_IsbL-0300_RLatLon0.09_PT070H.grib2 2026-04-30 09:01 355K
20260430T06Z_MSC_RDPS_WindU_IsbL-0350_RLatLon0.09_PT070H.grib2 2026-04-30 09:01 365K
20260430T06Z_MSC_RDPS_WindU_IsbL-0400_RLatLon0.09_PT070H.grib2 2026-04-30 09:01 472K
20260430T06Z_MSC_RDPS_WindU_IsbL-0450_RLatLon0.09_PT070H.grib2 2026-04-30 09:01 470K
20260430T06Z_MSC_RDPS_WindU_IsbL-0500_RLatLon0.09_PT070H.grib2 2026-04-30 09:01 471K
20260430T06Z_MSC_RDPS_WindU_IsbL-0550_RLatLon0.09_PT070H.grib2 2026-04-30 09:01 472K
20260430T06Z_MSC_RDPS_WindU_IsbL-0600_RLatLon0.09_PT070H.grib2 2026-04-30 09:01 462K
20260430T06Z_MSC_RDPS_WindU_IsbL-0650_RLatLon0.09_PT070H.grib2 2026-04-30 09:01 479K
20260430T06Z_MSC_RDPS_WindU_IsbL-0700_RLatLon0.09_PT070H.grib2 2026-04-30 09:01 501K
20260430T06Z_MSC_RDPS_WindU_IsbL-0750_RLatLon0.09_PT070H.grib2 2026-04-30 09:01 527K
20260430T06Z_MSC_RDPS_WindU_IsbL-0800_RLatLon0.09_PT070H.grib2 2026-04-30 09:01 565K
20260430T06Z_MSC_RDPS_WindU_IsbL-0850_RLatLon0.09_PT070H.grib2 2026-04-30 09:01 619K
20260430T06Z_MSC_RDPS_WindU_IsbL-0875_RLatLon0.09_PT070H.grib2 2026-04-30 09:01 640K
20260430T06Z_MSC_RDPS_WindU_IsbL-0900_RLatLon0.09_PT070H.grib2 2026-04-30 09:01 650K
20260430T06Z_MSC_RDPS_WindU_IsbL-0925_RLatLon0.09_PT070H.grib2 2026-04-30 09:01 658K
20260430T06Z_MSC_RDPS_WindU_IsbL-0950_RLatLon0.09_PT070H.grib2 2026-04-30 09:01 655K
20260430T06Z_MSC_RDPS_WindU_IsbL-0970_RLatLon0.09_PT070H.grib2 2026-04-30 09:01 654K
20260430T06Z_MSC_RDPS_WindU_IsbL-0985_RLatLon0.09_PT070H.grib2 2026-04-30 09:01 647K
20260430T06Z_MSC_RDPS_WindU_IsbL-1000_RLatLon0.09_PT070H.grib2 2026-04-30 09:01 641K
20260430T06Z_MSC_RDPS_WindU_IsbL-1015_RLatLon0.09_PT070H.grib2 2026-04-30 09:01 770K
20260430T06Z_MSC_RDPS_WindV_AGL-10m_RLatLon0.09_PT070H.grib2 2026-04-30 09:01 426K
20260430T06Z_MSC_RDPS_WindV_AGL-120m_RLatLon0.09_PT070H.grib2 2026-04-30 09:01 414K
20260430T06Z_MSC_RDPS_WindV_AGL-40m_RLatLon0.09_PT070H.grib2 2026-04-30 09:01 532K
20260430T06Z_MSC_RDPS_WindV_AGL-80m_RLatLon0.09_PT070H.grib2 2026-04-30 09:01 530K
20260430T06Z_MSC_RDPS_WindV_IsbL-0001_RLatLon0.09_PT070H.grib2 2026-04-30 09:01 245K
20260430T06Z_MSC_RDPS_WindV_IsbL-0005_RLatLon0.09_PT070H.grib2 2026-04-30 09:01 287K
20260430T06Z_MSC_RDPS_WindV_IsbL-0010_RLatLon0.09_PT070H.grib2 2026-04-30 09:01 389K
20260430T06Z_MSC_RDPS_WindV_IsbL-0020_RLatLon0.09_PT070H.grib2 2026-04-30 09:01 315K
20260430T06Z_MSC_RDPS_WindV_IsbL-0030_RLatLon0.09_PT070H.grib2 2026-04-30 09:01 315K
20260430T06Z_MSC_RDPS_WindV_IsbL-0050_RLatLon0.09_PT070H.grib2 2026-04-30 09:01 343K
20260430T06Z_MSC_RDPS_WindV_IsbL-0100_RLatLon0.09_PT070H.grib2 2026-04-30 09:01 429K
20260430T06Z_MSC_RDPS_WindV_IsbL-0150_RLatLon0.09_PT070H.grib2 2026-04-30 09:01 398K
20260430T06Z_MSC_RDPS_WindV_IsbL-0175_RLatLon0.09_PT070H.grib2 2026-04-30 09:01 421K
20260430T06Z_MSC_RDPS_WindV_IsbL-0200_RLatLon0.09_PT070H.grib2 2026-04-30 09:01 337K
20260430T06Z_MSC_RDPS_WindV_IsbL-0225_RLatLon0.09_PT070H.grib2 2026-04-30 09:01 340K
20260430T06Z_MSC_RDPS_WindV_IsbL-0250_RLatLon0.09_PT070H.grib2 2026-04-30 09:01 342K
20260430T06Z_MSC_RDPS_WindV_IsbL-0275_RLatLon0.09_PT070H.grib2 2026-04-30 09:01 357K
20260430T06Z_MSC_RDPS_WindV_IsbL-0300_RLatLon0.09_PT070H.grib2 2026-04-30 09:01 353K
20260430T06Z_MSC_RDPS_WindV_IsbL-0350_RLatLon0.09_PT070H.grib2 2026-04-30 09:01 361K
20260430T06Z_MSC_RDPS_WindV_IsbL-0400_RLatLon0.09_PT070H.grib2 2026-04-30 09:01 365K
20260430T06Z_MSC_RDPS_WindV_IsbL-0450_RLatLon0.09_PT070H.grib2 2026-04-30 09:01 468K
20260430T06Z_MSC_RDPS_WindV_IsbL-0500_RLatLon0.09_PT070H.grib2 2026-04-30 09:01 469K
20260430T06Z_MSC_RDPS_WindV_IsbL-0550_RLatLon0.09_PT070H.grib2 2026-04-30 09:01 470K
20260430T06Z_MSC_RDPS_WindV_IsbL-0600_RLatLon0.09_PT070H.grib2 2026-04-30 09:01 477K
20260430T06Z_MSC_RDPS_WindV_IsbL-0650_RLatLon0.09_PT070H.grib2 2026-04-30 09:01 494K
20260430T06Z_MSC_RDPS_WindV_IsbL-0700_RLatLon0.09_PT070H.grib2 2026-04-30 09:01 514K
20260430T06Z_MSC_RDPS_WindV_IsbL-0750_RLatLon0.09_PT070H.grib2 2026-04-30 09:01 538K
20260430T06Z_MSC_RDPS_WindV_IsbL-0800_RLatLon0.09_PT070H.grib2 2026-04-30 09:01 574K
20260430T06Z_MSC_RDPS_WindV_IsbL-0850_RLatLon0.09_PT070H.grib2 2026-04-30 09:01 615K
20260430T06Z_MSC_RDPS_WindV_IsbL-0875_RLatLon0.09_PT070H.grib2 2026-04-30 09:01 637K
20260430T06Z_MSC_RDPS_WindV_IsbL-0900_RLatLon0.09_PT070H.grib2 2026-04-30 09:01 648K
20260430T06Z_MSC_RDPS_WindV_IsbL-0925_RLatLon0.09_PT070H.grib2 2026-04-30 09:01 656K
20260430T06Z_MSC_RDPS_WindV_IsbL-0950_RLatLon0.09_PT070H.grib2 2026-04-30 09:01 654K
20260430T06Z_MSC_RDPS_WindV_IsbL-0970_RLatLon0.09_PT070H.grib2 2026-04-30 09:01 654K
20260430T06Z_MSC_RDPS_WindV_IsbL-0985_RLatLon0.09_PT070H.grib2 2026-04-30 09:01 787K
20260430T06Z_MSC_RDPS_WindV_IsbL-1000_RLatLon0.09_PT070H.grib2 2026-04-30 09:01 778K
20260430T06Z_MSC_RDPS_WindV_IsbL-1015_RLatLon0.09_PT070H.grib2 2026-04-30 09:01 769K